Location: Unspecified
(33.7400°N, 0.0000°E)
Time: 09:49:29
(UTC+00:00)

CZ-6A DEB - Visible Passes

Search period start: 04 April 2026 00:00
Search period end: 14 April 2026 00:00
Orbit: 816 x 900 km, 98.8° (Epoch: 28 March)

Date Brightness Start Highest point End Pass type
(mag) Time Alt. Az. Time Alt. Az. Time Alt. Az.
4 Apr ? 04:34:07 10° NNE 04:39:24 48° E 04:44:34 10° S visible
5 Apr ? 04:24:34 10° NNE 04:29:39 38° E 04:34:37 10° SSE visible
6 Apr ? 04:15:06 10° NE 04:19:53 31° E 04:24:34 10° SSE visible
7 Apr ? 04:05:41 10° NE 04:10:05 25° E 04:14:25 10° SSE visible
8 Apr ? 03:56:24 10° NE 04:00:18 20° E 04:04:07 10° SE visible
9 Apr ? 03:47:17 10° ENE 03:50:28 16° E 03:53:37 10° SE visible
10 Apr ? 03:38:32 10° ENE 03:40:39 12° E 03:42:44 10° ESE visible
11 Apr ? 05:06:46 10° N 05:12:12 81° WNW 05:17:31 10° SSW visible
12 Apr ? 04:57:03 10° NNE 05:02:29 82° ESE 05:07:48 10° S visible
13 Apr ? 04:47:22 10° NNE 04:52:45 66° ESE 04:58:01 10° S visible
